Iridium 22

operational
NORAD ID: 24907 Int'l Des: 1997-043 Owner: IRID Country: US Constellation: iridium
LEOCIRCULARPOLAR

About Iridium 22

Description loading...

Live Position

Loading 3D Globe...

Upcoming Passes

Altitude History

Altitude vs Time

uPlot chart will show altitude changes over time

Two-Line Element Set

1 24907U 97043E 25298.42122545 .00000642 00000-0 21404-3 0 9992
2 24907 86.3959 59.5144 0001977 90.9787 269.1637 14.36065720475460
Epoch: Oct 25, 2025 • Age: 14 hours

Current Status

Altitude 774.3 km
Velocity 7.47 km/s
Sub-Earth Point 1.73°N, 160.2°W
Launch Date Aug 21, 1997
Age 28.1 years
Type communications

Technical Details

Classification Payload
Mass 662.00 kg
Dry Mass 556.00 kg
Total Mass 662.00 kg
Length 3.50 m
Diameter 1.00 m
Span 5.00 m
Shape Box + 2 Pan
Manufacturer MOTO/LMMS
Bus Type LM700
Phase Status In Orbit
Owner/State IRID/US

Large Constellations

Loading constellations...